Location: Karlsruhe
(49.0131°N, 8.3874°E)
Time: 17:00:40
(UTC+01:00)

ISS - Pass Details

Date: 22 March 2017
Orbit: 399 x 409 km, 51.6° (Epoch: 25 March)

Event Time Altitude Azimuth Distance (km) Brightness Sun altitude
Exits shadow 03:47:02 15° 115° (ESE) 1,225 -1.1 -25.2°
Drops below altitude 10° 03:47:39 10° 114° (ESE) 1,472 -0.6 -25.2°
Sets 03:49:44 0° 114° (ESE) 2,331 0.5 -24.9°
